CAPE
0 0 0 0 0 0 0 0 0 0 0 0 0 0 0 0 0 0 0 0 0 0 0 0 0 0 0 0 0 0 654 1540 2146 1999 1795 1609 1573 1340 1363 1316 1364 1239 973 732
0 0 0 0 0 0 0 0 0 0 0 0 0 0 0 0 0 0 0 0 0 0 0 0 0 0 0 0 0 0 327 1039 2016 2041 1909 1725 1596 1353 1437 1260 1261 1273 1132 876
0 0 0 0 0 0 0 0 0 0 0 0 0 0 0 0 0 0 0 0 0 0 0 0 0 0 0 0 0 0 88 1051 1914 2078 1834 1558 1137 1016 1173 1278 1276 1085 1030 1009
0 0 0 0 0 0 0 0 0 0 0 0 0 0 0 0 0 0 0 0 0 0 0 0 0 0 0 0 0 0 105 1148 2010 2032 1774 1725 1545 1353 1390 1192 1230 1024 809 778
0 0 0 0 0 0 0 0 0 0 0 0 0 0 0 0 0 0 0 0 0 0 0 0 0 0 0 0 0 0 306 1349 1983 2044 1830 1693 1571 1307 1153 916 928 884 701 666
0 0 0 0 0 0 0 0 0 0 0 0 0 0 0 0 0 0 0 0 0 0 0 0 0 0 0 0 0 37 621 1330 1835 2045 1889 1696 1471 1176 1048 921 944 722 564 468
0 0 0 0 0 0 0 0 0 0 0 0 0 0 0 0 0 0 0 0 0 0 0 0 0 0 0 0 12 88 698 1186 1719 1870 1863 1704 1405 1196 1136 995 878 632 356 266
0 0 0 0 0 0 0 0 0 0 0 0 0 0 0 0 0 0 0 0 0 112 149 112 114 269 297 211 167 301 528 972 1343 1464 1537 1543 1275 1170 1039 899 627 374 326 227
0 0 0 0 0 0 0 0 0 1 0 1 0 0 0 0 0 0 0 0 331 448 374 320 234 84 52 53 53 88 206 658 1030 1151 1160 1047 957 1006 891 719 489 318 228 232
0 0 0 0 0 0 0 0 0 0 0 0 0 0 0 0 0 0 0 1 0 53 200 121 79 34 0 0 0 0 5 48 210 495 901 1045 926 725 839 697 631 478 368 260
0 0 0 0 0 0 0 0 0 0 0 9 0 0 35 63 128 170 181 42 0 3 4 0 0 0 0 0 0 0 0 0 8 54 155 537 651 731 754 656 625 552 361 294
0 0 0 0 0 0 0 0 0 0 0 0 2 0 2 0 50 2 3 10 8 2 3 2 2 1 0 0 0 0 0 0 0 1 0 28 310 229 170 212 82 180 244 185
0 0 0 0 0 0 0 0 0 1 0 1 0 0 9 15 26 2 0 5 3 3 1 0 0 2 0 0 2 1 0 0 0 0 0 0 23 245 85 28 51 7 26 11
0 0 0 0 0 0 0 0 0 0 0 0 0 0 20 24 3 2 0 7 14 3 0 0 0 1 1 1 2 1 1 1 2 1 0 0 0 2 11 1 1 0 0 0
0 0 0 0 0 0 0 0 0 0 0 0 2 0 1 14 5 2 1 1 0 12 7 1 0 0 0 0 0 0 0 1 1 2 2 1 1 2 0 1 0 5 4 0
0 0 0 0 0 0 0 0 0 3 1 0 0 0 0 5 5 2 3 1 0 0 4 0 1 0 0 0 0 0 0 0 0 2 1 3 2 1 1 0 0 6 1 0
0 0 0 0 0 0 1 0 0 1 1 1 0 1 4 4 7 4 3 0 1 3 0 0 0 0 0 0 0 0 1 1 0 1 3 2 2 3 1 1 1 6 3 0
0 0 0 0 0 0 0 0 0 2 0 3 1 1 1 3 2 2 2 7 3 2 0 0 0 0 0 0 0 0 0 0 0 0 0 2 1 2 3 1 1 1 0 0
0 0 0 0 0 0 0 0 0 3 0 2 2 0 1 3 2 2 1 0 0 0 0 0 0 0 0 0 0 0 0 0 0 0 0 1 2 1 2 3 5 3 2 1
0 0 0 0 0 0 0 0 0 0 0 0 1 1 0 0 0 0 0 0 0 0 0 0 0 0 0 0 0 0 0 0 1 3 2 1 1 2 4 3 1 5 4 1
0 0 0 0 0 0 0 0 0 0 0 0 1 1 0 1 1 1 2 0 0 0 0 0 0 0 0 0 0 0 0 1 2 2 2 1 0 1 2 4 5 4 3 3
0 0 0 0 0 0 0 0 0 0 1 0 1 0 1 0 2 1 0 0 0 0 0 0 0 0 0 0 0 1 1 1 1 1 2 1 1 3 1 1 2 4 3 3
0 0 0 0 0 0 0 1 1 1 2 1 1 0 0 1 2 1 0 1 0 0 0 0 0 1 0 0 1 3 1 0 1 0 1 2 2 3 3 1 2 2 2 3
0 0 0 0 0 0 0 0 0 1 1 1 1 0 0 2 1 1 1 1 1 1 0 0 0 0 1 0 1 1 0 0 0 2 1 2 3 4 4 4 4 4 1 3
0 0 0 0 0 1 0 0 0 0 2 1 2 2 0 1 1 1 3 2 2 1 0 1 1 1 1 1 1 0 0 0 0 1 1 2 2 3 3 3 4 5 4 2
0 0 0 0 0 0 0 0 0 0 0 0 0 1 1 1 1 0 1 1 0 2 1 1 0 0 0 0 1 0 0 0 0 0 1 1 2 1 0 1 2 2 1 2
CIN
0 0 0 0 0 0 0 0 0 0 0 0 0 0 0 0 0 0 0 0 0 0 0 0 0 0 0 0 0 -1 -131 -171 -217 -193 -205 -169 -167 -187 -159 -158 -139 -122 -119 -123
0 0 0 0 0 0 0 0 0 0 0 0 0 0 0 0 0 0 0 0 0 0 0 0 0 0 0 0 0 0 -181 -177 -221 -217 -245 -198 -196 -198 -155 -134 -125 -105 -85 -97
0 0 0 0 0 0 0 0 0 0 0 0 0 0 0 0 0 0 0 0 0 0 0 0 0 0 0 0 0 0 -211 -229 -224 -236 -217 -196 -196 -168 -143 -126 -89 -110 -118 -92
0 0 0 0 0 0 0 0 0 0 0 0 0 0 0 0 0 0 0 0 0 0 0 0 0 0 0 0 0 0 -204 -246 -237 -225 -230 -205 -173 -180 -196 -197 -132 -117 -142 -130
0 0 0 0 0 0 0 0 0 0 0 0 0 0 0 0 0 0 0 0 0 0 0 0 0 0 0 0 0 -14 -213 -226 -227 -222 -225 -215 -168 -196 -202 -205 -173 -129 -155 -137
0 0 0 0 0 0 0 0 0 0 0 0 0 0 0 0 0 0 0 0 0 0 0 0 0 0 0 0 0 -228 -189 -188 -229 -204 -199 -187 -181 -204 -190 -170 -126 -151 -173 -166
0 0 0 0 0 0 0 0 0 0 0 0 0 0 0 0 0 0 0 0 0 0 0 0 0 0 0 0 -179 -360 -300 -261 -191 -160 -156 -153 -173 -185 -142 -142 -129 -159 -200 -221
0 0 0 0 0 0 0 0 0 0 0 0 0 0 0 0 0 0 0 0 0 -133 -222 -308 -333 -284 -312 -374 -397 -357 -289 -228 -175 -144 -140 -146 -148 -109 -115 -116 -154 -190 -203 -230
0 0 0 0 0 0 0 0 0 -1 0 0 0 0 0 0 0 0 0 0 -50 -157 -259 -263 -349 -398 -431 -459 -510 -460 -350 -247 -165 -125 -123 -134 -130 -91 -96 -89 -142 -212 -249 -251
0 0 0 0 0 0 0 0 0 0 0 0 0 0 0 0 0 0 0 -14 0 -70 -245 -356 -428 -481 0 0 0 0 -470 -366 -247 -163 -100 -68 -59 -60 -60 -55 -84 -147 -168 -199
0 0 0 0 0 0 0 0 0 0 0 -4 0 0 -7 -4 -25 -81 -70 -125 0 -6 0 0 0 0 0 0 0 0 0 0 -334 -240 -166 -74 -51 -58 -43 -45 -58 -109 -138 -147
0 0 0 0 0 0 0 0 0 0 0 0 -2 0 -33 -11 -57 -68 -5 -5 -209 0 0 0 0 0 0 0 0 0 0 0 0 0 -13 -158 -57 -67 -63 -63 -120 -141 -124 -130
0 0 0 0 0 0 0 0 0 0 -1 -1 0 0 -48 -39 -16 -46 0 0 0 0 0 0 0 0 0 0 0 0 0 0 0 0 0 0 -146 -23 -53 -108 -103 -142 -146 -124
0 0 0 0 0 0 0 0 0 0 0 0 0 -1 -20 -49 -14 0 0 0 0 0 0 0 0 0 0 0 0 0 0 0 0 0 0 0 0 -24 -36 -8 -33 0 0 0
0 0 0 0 0 0 0 0 0 0 0 0 0 0 -8 -10 -21 0 0 0 0 -1 0 0 0 0 0 0 0 0 0 0 0 0 0 0 0 0 -11 -65 0 -88 -91 0
0 0 0 0 0 0 0 0 0 0 0 0 0 0 0 0 0 0 0 0 0 0 0 0 0 0 0 0 0 0 0 0 0 0 0 0 0 0 0 0 0 -25 -55 0
0 0 0 0 0 0 -6 0 0 0 0 0 0 0 0 0 0 0 0 -1 -1 0 0 0 0 0 0 0 0 0 0 0 0 0 0 0 0 0 0 0 0 -55 -37 -3
0 0 0 0 0 0 0 0 0 0 0 0 0 0 0 0 0 0 0 0 0 0 0 0 0 0 0 0 0 0 0 0 0 0 0 0 0 0 0 0 0 0 0 -12
0 0 -11 0 0 0 0 0 0 0 0 0 0 0 0 0 0 0 0 0 0 0 0 0 0 0 0 0 0 0 0 0 0 0 0 0 0 0 0 0 0 0 0 0
0 0 0 0 0 0 0 0 0 0 0 0 0 0 0 0 0 0 0 0 0 0 0 0 0 0 0 0 0 0 0 0 0 0 0 0 0 0 0 0 0 0 0 0
0 0 0 0 0 0 0 0 0 0 0 0 0 0 0 0 0 0 0 0 0 0 0 0 0 0 0 0 0 0 0 0 0 0 0 0 0 0 0 0 0 0 0 0
0 0 0 0 0 0 0 0 0 0 -1 0 0 0 0 0 0 0 0 0 0 0 0 0 0 0 0 0 0 0 0 0 0 0 0 0 0 0 0 0 0 0 0 0
0 0 0 0 0 0 -1 0 -1 0 0 0 0 0 0 0 0 0 0 0 0 0 0 0 0 0 0 0 0 0 0 0 0 0 0 0 0 0 0 0 0 0 0 0
0 0 0 0 0 0 0 0 0 0 0 0 0 0 0 0 0 0 0 0 0 0 0 0 0 0 0 0 0 0 0 0 0 0 0 0 0 0 0 0 0 0 0 0
0 0 0 0 0 0 0 0 0 -1 0 0 0 0 0 0 0 0 0 0 0 0 0 0 0 0 0 0 0 0 0 0 0 0 0 0 0 0 0 0 0 0 0 0
0 0 0 0 0 0 -1 0 0 -1 0 0 0 0 0 0 0 0 0 0 0 0 0 0 0 0 0 0 0 0 0 0 0 0 0 0 0 0 0 0 0 0 0 0
Wind_Speed
26 27 30 32 33 35 39 43 48 54 51 51 51 56 54 51 50 47 48 46 49 50 46 49 53 53 45 42 36 31 27 24 22 20 17 16 14 12 10 11 10 9 8 8
28 24 31 32 35 39 42 48 51 56 51 51 55 59 61 58 55 54 52 47 41 45 47 45 43 48 45 38 34 32 29 26 24 23 21 21 16 14 13 12 11 10 10 9
29 27 30 37 40 43 45 45 50 52 61 60 59 65 60 58 55 55 56 50 33 45 47 48 45 42 40 42 37 30 27 26 25 24 24 22 18 16 16 13 13 12 11 11
25 29 37 41 42 42 47 43 47 54 55 57 48 72 62 59 61 59 58 54 37 46 47 48 48 42 38 39 34 33 28 26 24 23 24 22 19 18 18 15 14 13 13 12
27 36 41 41 38 41 42 45 49 48 49 51 48 46 50 47 57 57 54 53 45 52 48 46 48 44 37 32 24 25 24 23 22 22 22 21 21 20 20 17 15 14 13 13
30 32 30 33 38 37 38 41 45 39 34 36 33 40 48 51 53 50 48 48 46 47 47 46 44 43 37 33 28 22 22 22 21 21 21 20 20 19 19 18 16 16 14 15
36 24 29 27 49 35 35 39 41 37 33 33 39 40 39 38 39 43 41 41 40 42 46 49 40 37 33 29 23 23 24 24 22 21 21 19 18 17 17 16 16 16 16 16
35 36 34 33 34 32 38 28 33 33 40 26 20 33 33 30 33 35 37 39 37 30 21 18 16 18 18 17 16 17 19 21 21 22 23 21 20 19 19 16 16 17 16 15
32 28 37 31 25 28 24 30 28 29 22 26 18 20 26 25 25 28 29 35 25 8 3 5 8 9 10 11 12 14 15 15 18 22 23 24 21 20 19 18 18 18 16 14
26 36 32 29 28 19 19 31 34 31 30 33 25 22 15 20 22 27 33 32 29 25 7 5 5 6 9 10 11 14 15 18 20 21 24 27 25 24 20 20 18 17 17 15
28 27 34 30 24 19 25 30 21 13 17 32 29 19 20 21 22 24 28 27 6 15 6 4 5 6 6 10 11 14 17 19 22 24 25 24 25 24 22 19 17 16 15 14
24 27 33 30 17 23 25 30 8 23 23 24 26 25 16 18 20 20 17 10 10 7 4 6 6 7 7 12 13 15 17 19 21 21 22 23 22 20 17 16 15 13 13 13
26 27 37 29 18 20 33 29 30 15 14 33 30 27 24 23 21 18 15 17 13 11 7 5 6 8 10 12 13 15 16 18 21 21 21 22 24 23 20 18 16 14 13 13
23 22 22 20 15 32 30 33 28 22 23 25 26 24 21 22 20 21 20 19 12 13 10 6 8 9 11 10 13 15 16 17 19 19 19 20 22 23 25 18 15 15 15 15
22 22 19 14 13 30 29 28 30 33 32 16 18 20 19 19 21 20 19 18 14 12 8 5 7 10 13 12 13 15 16 18 19 18 18 19 20 20 19 19 16 16 15 16
20 22 19 14 29 27 28 22 16 28 31 24 20 19 26 22 15 16 18 14 15 16 16 11 9 10 11 13 13 16 17 18 18 18 18 20 20 20 21 24 23 18 18 18
19 19 19 13 27 28 19 26 26 26 31 25 21 26 24 17 13 15 15 15 16 22 15 10 9 12 13 13 15 16 17 18 18 19 19 20 21 21 22 22 22 20 20 19
16 15 11 16 27 20 20 27 25 23 24 28 29 25 22 12 15 17 18 17 16 18 10 13 14 14 14 15 17 18 19 20 20 20 20 21 21 22 23 24 25 24 23 21
12 13 11 16 24 26 22 28 29 27 21 28 25 22 19 15 15 20 23 21 19 17 14 13 15 16 16 17 18 21 21 21 21 21 21 22 22 23 24 25 26 25 25 26
19 14 15 18 22 23 23 31 28 21 20 29 27 23 21 19 20 22 23 21 22 22 20 18 19 19 20 21 21 22 22 22 22 23 22 23 23 23 24 26 26 28 27 26
19 17 18 23 24 20 25 30 26 19 22 27 26 25 24 21 19 20 21 21 21 21 22 21 22 22 20 22 21 21 22 22 23 23 23 23 23 23 24 26 25 26 25 23
16 16 20 23 23 24 27 25 21 24 25 24 24 23 22 21 20 21 21 21 21 22 22 23 23 23 23 24 23 23 23 23 23 22 22 23 23 23 24 25 24 23 22 21
15 18 22 22 23 22 22 22 23 23 24 23 22 22 22 22 22 21 20 22 20 20 21 21 21 22 23 23 23 24 24 23 22 22 22 22 23 23 23 23 24 23 21 20
21 17 22 23 22 21 20 22 23 23 23 22 21 21 22 22 20 19 21 22 19 19 21 21 21 21 22 22 22 22 23 22 21 21 22 22 22 22 23 22 23 23 21 18
20 19 22 23 21 19 21 22 23 23 22 22 22 22 21 20 21 20 19 20 20 20 21 21 21 20 20 21 21 22 22 22 21 21 22 22 21 22 22 22 22 21 21 17
15 15 19 21 19 22 22 23 23 23 24 22 22 22 21 20 20 21 21 20 20 20 20 21 20 20 20 21 21 21 23 22 22 21 21 21 21 21 21 20 20 22 20 19
Wind_Direction
333 328 325 325 323 320 317 314 310 305 306 305 300 294 292 293 290 286 282 282 277 270 271 261 261 262 263 260 254 248 242 241 236 236 238 241 236 245 250 244 233 222 214 207
332 331 330 329 328 323 321 317 311 307 308 306 301 295 290 286 284 281 280 280 280 268 265 266 263 262 265 258 252 246 240 233 225 231 238 249 245 251 257 255 244 236 215 224
331 332 334 331 328 325 319 317 314 310 307 302 301 293 289 283 282 279 274 276 278 268 262 263 261 265 264 259 254 246 238 233 227 236 240 250 252 261 266 258 250 247 236 231
341 337 333 329 326 326 319 323 318 313 312 307 309 296 291 286 276 270 266 267 276 264 260 260 260 263 265 262 254 248 238 234 232 229 231 231 233 247 259 261 254 253 250 243
336 334 332 330 331 329 323 324 320 317 312 310 307 300 265 288 270 263 262 259 271 257 257 258 257 255 260 263 253 245 238 230 226 221 227 231 244 255 265 263 256 250 244 240
337 337 340 337 337 335 332 330 327 320 320 318 306 307 266 268 253 256 257 255 265 258 258 258 258 254 256 257 258 243 237 234 231 226 230 233 243 251 259 262 255 256 251 249
339 352 350 351 338 345 346 339 337 338 337 327 330 308 263 259 247 247 256 262 266 262 255 253 253 247 253 256 255 248 243 244 241 237 240 240 246 249 253 255 252 254 257 255
341 340 348 345 343 341 342 352 342 335 335 303 307 277 269 251 251 254 253 256 269 278 269 262 233 236 240 242 244 245 248 251 250 247 250 253 254 257 262 255 255 261 256 253
342 343 340 345 353 346 351 349 349 341 341 345 0 281 274 256 267 252 263 255 268 272 216 212 210 234 246 246 254 258 260 263 261 259 260 261 261 262 262 260 261 261 258 257
346 335 347 350 349 7 354 340 347 355 352 345 297 298 282 283 278 270 267 261 238 240 200 183 228 249 259 263 266 272 272 269 269 270 269 268 267 266 266 266 260 257 257 257
345 345 342 351 353 349 346 352 3 358 2 302 297 277 317 313 303 289 279 244 142 242 234 227 258 269 273 280 283 285 281 279 278 276 276 275 272 271 269 263 259 255 253 252
353 347 344 344 355 312 335 294 350 359 283 271 269 264 281 295 317 316 315 299 270 252 252 267 288 308 323 299 295 287 286 288 285 281 279 278 276 274 266 260 260 257 251 253
352 350 344 351 7 329 302 293 292 289 303 264 265 248 274 287 305 298 305 305 275 269 284 305 309 315 330 320 300 295 298 296 291 286 285 281 276 272 269 263 263 255 253 261
352 348 345 343 337 277 279 294 296 357 302 271 242 244 273 286 291 289 296 307 292 281 295 315 317 321 323 315 301 301 303 305 300 296 291 287 282 276 272 265 254 258 263 266
354 345 343 335 297 271 279 302 315 331 334 301 266 259 281 288 299 296 316 305 318 318 308 339 325 346 328 317 320 322 319 315 309 303 298 294 290 281 280 274 271 269 267 271
352 346 348 339 273 273 282 298 294 337 340 312 283 268 288 285 324 340 340 341 358 352 341 326 336 334 317 322 324 326 331 330 324 315 306 298 294 291 283 280 276 273 271 274
352 353 354 344 289 283 278 312 306 320 341 324 296 280 288 276 312 325 331 347 348 4 359 335 337 334 339 327 323 322 324 327 329 323 310 303 298 293 287 287 284 276 275 273
348 345 352 331 279 287 298 324 308 301 318 330 325 299 289 314 345 344 336 343 346 1 330 338 336 330 329 319 322 325 325 324 325 322 317 308 300 295 292 288 286 282 281 275
23 18 1 330 283 273 295 315 311 301 294 328 323 319 308 305 323 348 350 356 353 346 331 328 332 318 314 313 318 331 328 325 322 320 319 311 308 300 296 293 288 287 285 278
14 14 345 313 289 273 287 306 301 282 293 325 323 323 328 319 293 306 336 348 354 356 349 330 332 329 323 318 323 330 324 325 322 319 319 318 314 309 306 297 293 286 284 282
5 4 339 292 277 278 301 305 303 308 283 307 313 323 337 334 325 329 339 337 345 352 346 354 352 338 315 329 327 326 325 323 322 323 323 322 320 317 319 307 302 296 288 286
5 355 325 294 285 272 309 315 317 304 300 303 314 321 329 332 328 333 333 336 333 336 341 348 343 336 324 336 340 334 327 324 326 330 328 329 327 325 324 321 316 309 299 287
354 336 310 296 288 297 306 315 310 307 305 300 305 316 326 324 320 324 323 334 325 324 332 333 330 328 330 332 333 339 333 328 332 336 334 333 335 335 331 330 328 323 311 299
333 335 307 298 288 298 300 314 313 310 309 303 298 310 331 327 320 323 332 332 318 327 332 322 323 328 329 327 330 332 329 335 339 341 341 341 341 341 340 339 337 335 328 315
321 323 305 297 294 299 294 305 309 305 304 312 320 320 325 329 333 323 320 328 327 325 327 329 328 329 325 328 332 336 336 345 348 349 347 347 347 346 349 354 347 347 347 343
319 309 295 296 302 293 296 299 301 307 304 311 321 323 324 332 341 344 341 329 329 331 331 334 334 330 325 329 330 332 345 346 354 355 353 353 356 358 357 356 3 9 7 5